Home > Weather > Atlanta > Past weeks

Flag for USA Past Weather in Atlanta, Georgia, USA — Yesterday and Last 2 Weeks

Now
74 °F

Sunny.


Feels Like: 73 °F
Forecast: 73 / 87 °F
Wind: 5 mph from Southwest

Location: Fulton County Airport-Brown Field

Current Time: Jul 29, 2016 at 8:18:59 AM

Latest Report: Jul 29, 2016 at 7:53 AM


Visibility: 10 mi

Pressure: 30.01 "Hg

Humidity: 88%

Dew Point: 70 °F

Location of AtlantaLocation

Past Weather in Atlanta — Graph

°F

Atlanta Temperature Yesterday

Maximum temperature yesterday: 86 °F (at 2:53 PM)
Minimum temperature yesterday: 73 °F (at 5:53 AM)
Average temperature yesterday: 80 °F

High & Low Weather Summary for the Past Weeks

 TemperatureHumidityPressure
High98 °F (Jul 19, 4:53 PM)94% (Jul 24, 4:53 AM)30.26 "Hg (Jul 24, 4:53 AM)
Low70 °F (Jul 15, 4:53 AM)30% (Jul 26, 5:53 PM)29.93 "Hg (Jul 25, 6:53 PM)
Average82 °F67%30.06 "Hg
* Reported Jul 14 6:53 AM — Jul 29 6:53 AM, Atlanta, Weather by CustomWeather, © 2016

Note: Actual official high and low records may vary slightly from our data, if they occured in-between our weather recording intervals... More about our weather records

Advertising

Atlanta Weather History for the Previous 24 Hours

Scroll right to see more
 ConditionsComfort  
Time TempWeatherWind HumidityBarometerVisibility
6:53 AM
Fri, Jul 29
73 °FClear.5 mph88%30.00 "Hg9 mi
5:53 AM73 °FClear.No wind90%29.99 "Hg10 mi
4:53 AM74 °FClear.3 mph88%29.99 "Hg10 mi
3:53 AM75 °FClear.3 mph85%29.99 "Hg10 mi
2:53 AM75 °FClear.5 mph88%29.98 "Hg10 mi
1:53 AM76 °FClear.3 mph85%29.98 "Hg10 mi
12:53 AM77 °FClear.No wind82%29.97 "Hg10 mi
11:53 PM
Thu, Jul 28
78 °FClear.3 mph79%29.98 "Hg10 mi
10:53 PM78 °FPartly cloudy.7 mph79%29.98 "Hg10 mi
9:53 PM81 °FPassing clouds.9 mph67%29.97 "Hg10 mi
8:53 PM83 °FPassing clouds.6 mph61%29.95 "Hg10 mi
7:53 PM84 °FScattered clouds.9 mph63%29.95 "Hg10 mi
6:53 PM86 °FPassing clouds.10 mph59%29.94 "Hg10 mi
5:53 PM84 °FScattered clouds.9 mph70%29.94 "Hg10 mi
4:53 PM78 °FLight rain. Mostly cloudy.6 mph79%29.95 "Hg2 mi
3:53 PM86 °FLight rain. More clouds than sun.9 mph57%29.95 "Hg10 mi
2:53 PM86 °FCloudy.10 mph55%29.97 "Hg10 mi
1:53 PM85 °FPartly sunny.12 mph57%29.99 "Hg10 mi
12:53 PM83 °FCloudy.10 mph63%30.01 "Hg10 mi
12:01 PM83 °FMore clouds than sun.12 mph63%30.05 "Hg10 mi
11:53 AM81 °FMostly cloudy.8 mph65%30.02 "Hg10 mi
10:53 AM81 °FPartly sunny.7 mph65%30.01 "Hg10 mi
10:00 AM80 °FPartly sunny.6 mph69%30.05 "Hg10 mi
9:53 AM79 °FPartly sunny.6 mph72%30.01 "Hg10 mi
9:00 AM76 °FPartly sunny.10 mph80%30.05 "Hg10 mi
8:53 AM76 °FPartly sunny.8 mph80%30.02 "Hg10 mi
Weather by CustomWeather, © 2016

See weather overviewHow to use our weather pages